www.pogodaiklimat.ru

Погода и климат >> Архив погоды >> Россия >> Чукотка >> Островное


АРХИВ ПОГОДЫ в Островном

Время (UTC), дата Ветер
(напр.,м/с)
 
Видим.   Явления Облачность Т
(С)
Тd
(С)
f
(%)
Тe
(С)
Тes
(С)
Комфортность P
(гПа)
Po
(гПа)
Тmin
(С)
Tmax
(С)
R
(мм)
R24
(мм)
S
(см)
09 11.02 ЮВ 2
{3}
50 км ясно -43.8 -48.2 61 -54 -54 опасность
обморожения
1022.5 1008.2 -35.5 0.0
12 11.02 ЮВ 1
{3}
50 км ясно -44.7 -50.5 52 -50 -50 опасность
обморожения
1021.4 1007.1
15 11.02 штиль 0
{3}
50 км ледяные иглы {снег} ясно -45.7 -51.3 53 -46 -46 опасность
обморожения
1019.1 1004.7
18 11.02 штиль 0
{2}
50 км ледяные иглы {снег} ясно -47.0 -52.2 55 -47 -47 опасность
обморожения
1018.3 1003.8
21 11.02 штиль 0
{2}
50 км ледяные иглы {снег} ясно -47.8 -53.2 53 -48 -48 опасность
обморожения
1017.2 1002.7 -47.8 0.0 30
00 12.02 штиль 0
{2}
50 км ледяные иглы {снег} 3/0
[Ci fib]
-46.7 -52.2 53 -47 -46 опасность
обморожения
1017.0 1002.6
03 12.02 ЮВ 1
{2}
50 км ледяные иглы {снег} ясно -43.7 -49.0 55 -49 -49 опасность
обморожения
1016.9 1002.6
06 12.02 В 1
{2}
50 км ледяные иглы {снег} ясно -45.3 -50.5 56 -51 -51 опасность
обморожения
1017.7 1003.3
09 12.02 штиль 0
{2}
50 км ледяные иглы {снег} ясно -46.6 -52.2 53 -47 -47 опасность
обморожения
1019.2 1004.8 -43.4 0.0
12 12.02 штиль 0
{2}
50 км ледяные иглы {снег} ясно -47.5 -54.0 47 -48 -48 опасность
обморожения
1020.5 1006.0
15 12.02 штиль 0
{2}
50 км ледяные иглы {снег} ясно -46.9 -52.2 54 -47 -47 опасность
обморожения
1021.6 1007.2
18 12.02 В 1
{2}
50 км ледяные иглы {снег} ясно -47.9 -54.0 49 -54 -54 опасность
обморожения
1022.7 1008.4
21 12.02 В 1
{2}
50 км ледяные иглы {снег} ясно -47.2 -52.2 56 -53 -53 опасность
обморожения
1023.8 1009.2 -48.0 0.0 30
00 13.02 В 1
{2}
50 км {снег} 3/0
[Ci fib]
-46.0 -51.3 55 -52 -51 опасность
обморожения
1025.1 1010.6
03 13.02 ЮВ 2
{3}
50 км 4/0
[Ac trans Ci fib]
-44.4 -49.7 55 -54 -54 опасность
обморожения
1025.7 1011.4
06 13.02 ЮВ 1
{3}
50 км 4/0
[Ac trans Ci fib]
-45.9 -51.3 54 -52 -52 опасность
обморожения
1027.1 1012.6
09 13.02 В 2
{4}
50 км ясно -45.8 -51.3 54 -56 -56 опасность
обморожения
1029.0 1014.5 -44.2 0.0
12 13.02 Ю 1
{4}
50 км ясно -47.0 -52.2 55 -53 -53 опасность
обморожения
1030.6 1015.9
15 13.02 С 1
{4}
50 км ледяные иглы {снег} ясно -45.4 -50.5 56 -51 -51 опасность
обморожения
1030.0 1015.5
18 13.02 В 2
{4}
50 км ледяные иглы {снег} ясно -45.3 -50.5 56 -55 -55 опасность
обморожения
1029.2 1014.7
21 13.02 В 4
{7}
50 км {снег} ясно -43.1 -48.3 56 -57 -57 опасность
обморожения
1027.2 1012.8 -47.2 0.0 30
00 14.02 ЮВ 1
{7}
50 км {снег} 6/0
[Ci fib]
-40.9 -46.6 54 -46 -46 опасность
обморожения
1025.4 1011.3
03 14.02 В 3
{5}
50 км 6/3 600 м
[Sc Ci fib]
-38.3 -43.0 61 -50 -49 опасность
обморожения
1022.5 1008.5
06 14.02 Ю 2
{5}
50 км {снег} 4/1 600 м
[Sc Ci fib]
-38.7 -43.4 61 -48 -48 опасность
обморожения
1020.3 1006.4
09 14.02 Ю 1
{8}
50 км ясно -37.5 -42.6 59 -42 -42 опасность
обморожения
1018.2 1004.3 -36.0
12 14.02 ЮВ 2
{7}
50 км ясно -38.0 -42.3 64 -47 -47 опасность
обморожения
1016.4 1002.5
15 14.02 СЗ 1
{5}
50 км ясно -40.8 -45.8 58 -46 -46 опасность
обморожения
1014.1 1000.2
18 14.02 штиль 0
{3}
50 км 4/1 600 м
[Sc Ac trans]
-40.5 -45.3 60 -41 -41 опасность
обморожения
1011.8 997.9
21 14.02 З 1
{4}
50 км 8/5 600 м
[Sc Ac trans Ci fib]
-39.8 -44.8 59 -45 -45 опасность
обморожения
1009.5 995.6 -41.4 30
00 15.02 штиль 0
{2}
50 км 10/6 600 м
[Sc Ac As]
-37.6 -41.8 65 -38 -38 опасность
обморожения
1007.5 993.7
03 15.02 З 3
{4}
50 км 10/8 600 м
[Sc Ac As]
-35.8 -40.0 65 -47 -47 опасность
обморожения
1005.4 991.9
06 15.02 СЗ 1
{5}
20 км слаб. снег 10/8 600 м
[Sc As op]
-33.7 -37.9 66 -38 -38 опасность
обморожения
1004.2 990.7
09 15.02 З 1
{3}
50 км {снег} 10/3 600 м
[Sc Ac trans Ci fib]
-34.7 -39.1 64 -39 -39 опасность
обморожения
1003.7 990.2 -23.7 0.0
12 15.02 З 1
{2}
20 км слаб. снег 10/5 600 м
[Sc As op]
-34.3 -38.5 66 -39 -39 опасность
обморожения
1003.5 990.1
15 15.02 З 4
{6}
20 км слаб. снег 10/4 600 м
[Sc Ac trans Cs]
-35.3 -39.7 64 -48 -48 опасность
обморожения
1002.5 989.0
18 15.02 З 3
{6}
20 км снежные кристаллы 10/5 600 м
[Sc Ac trans Cs]
-34.1 -38.5 64 -45 -45 опасность
обморожения
1002.1 988.6
21 15.02 З 3
{7}
20 км слаб. снег 10/6 600 м
[Sc Ac trans Cs]
-33.6 -37.9 65 -44 -44 опасность
обморожения
1001.5 988.0 -35.4 0.4 30
00 16.02 З 3
{6}
20 км слаб. снег 10/6 600 м
[Sc Ac trans Cs]
-32.6 -36.9 65 -43 -43 опасность
обморожения
1000.6 987.3
03 16.02 З 3
{7}
20 км слаб. снег 10/6 600 м
[Sc Ac trans Cs]
-31.4 -35.7 66 -41 -41 опасность
обморожения
999.4 986.1
06 16.02 З 3
{7}
50 км {снег} 9/6 600 м
[Sc Ac trans]
-31.8 -36.1 66 -42 -42 опасность
обморожения
998.0 984.7
09 16.02 З 4
{8}
20 км слаб. снег 10/6 600 м
[Sc Ac trans Cs]
-31.8 -36.1 66 -43 -43 опасность
обморожения
997.0 983.7 -31.1 0.4
12 16.02 З 4
{9}
20 км слаб. снег 10/8 600 м
[Sc Ac trans Cs]
-32.2 -36.6 65 -44 -44 опасность
обморожения
995.9 982.6
15 16.02 СЗ 5
{10}
20 км слаб. снег {метель} 10/8 600 м
[Sc As op]
-32.3 -36.6 65 -45 -45 опасность
обморожения
994.4 981.2
18 16.02 ЮВ 1
{10}
20 км слаб. снег {метель} 10/8 600 м
[Sc As op]
-30.9 -34.5 70 -35 -35 опасность
обморожения
984.5 981.4
21 16.02 ЮВ 2
{4}
20 км слаб. снег 10/6 600 м
[Sc Ac trans Cs]
-30.0 -33.7 70 -37 -37 опасность
обморожения
995.0 981.9 -32.9 0.7 31
00 17.02 В 1
{4}
20 км слаб. снег 10/5 600 м
[Sc Ac trans Cs]
-29.6 -33.3 70 -34 -33 опасность
обморожения
997.0 983.8
03 17.02 ЮВ 1
{4}
20 км слаб. снег 10/8 600 м
[Sc Ac trans Cs]
-27.7 -31.5 70 -32 -32 опасность
обморожения
997.6 984.5
06 17.02 ЮВ 1
{3}
10 км слаб. снег 10/8 600 м
[Sc As op]
-27.6 -31.3 71 -31 -31 опасность
обморожения
999.5 986.4
09 17.02 В 1
{2}
20 км слаб. снег 10/8 600 м
[Sc As op]
-27.8 -30.9 75 -32 -32 опасность
обморожения
1001.6 988.5 -27.5 0.8
12 17.02 штиль 0
{3}
20 км слаб. снег 10/8 600 м
[Sc As op]
-28.6 -31.6 75 -29 -29 1003.2 990.1
15 17.02 ЮВ 1
{1}
20 км слаб. снег 10/8 600 м
[Sc As op]
-28.3 -32.0 70 -32 -32 опасность
обморожения
1004.5 991.4
18 17.02 ЮВ 1
{2}
20 км слаб. снег 10/8 600 м
[Sc As op]
-29.2 -32.2 75 -33 -33 опасность
обморожения
1006.0 992.7
21 17.02 З 1
{2}
20 км слаб. снег 10/5 600 м
[Sc Ac trans Cs]
-30.0 -33.7 70 -34 -34 опасность
обморожения
1007.5 994.2 -30.3 2 31
00 18.02 штиль 0
{2}
50 км {снег} 10/6 600 м
[Sc Ac trans Ci fib]
-27.5 -31.3 70 -28 -27 1008.4 995.2
03 18.02 штиль 0
{2}
50 км снежные кристаллы 10/6 600 м
[Sc Ac trans Cs]
-26.5 -30.4 70 -27 -26 1009.0 995.9
06 18.02 ЮЗ 2
{4}
50 км {снег} 8/3 600 м
[Sc Ac trans Ci fib]
-28.7 -32.5 70 -36 -36 опасность
обморожения
1010.8 997.5

 

Местоположение метеостанции Островное (Чукотка, Россия): широта 68.12 долгота 164.10 высота над уровнем моря 94 м.

В архиве по умолчанию представлена погода в Островном за последнюю неделю. Архивные данные за месяц целиком и за предыдущие месяцы, начиная с января 2011 года, Вы можете получить, выбрав интересующий диапазон дат из раскрывающегося списка и нажав кнопку "Ввод!".


*Определитесь, кто Вы:
робот инопланетянин человек

Внимание! Время в таблицах - всемирное. Для получения местного времени необходимо прибавить поправку, которая равна 12 ч.

Смотрите также архив погоды в соседних городах и на ближайших метеорологических станциях:

Погода в Билибино (Чукотка, Россия) (96 км)
Погода в Анюйске (Чукотка, Россия) (110 км)
Погода в Константиновской (Чукотка, Россия) (124 км)
Погода в Черском (Якутия, Россия) (133 км)
Погода в Баимке (Чукотка, Россия) (177 км)
Погода в Раучуе (Чукотка, Россия) (181 км)
Погода в Бухте Амбарчик (Чукотка, Россия) (182 км)
Погода в Илирнее (Чукотка, Россия) (187 км)
Погода в Колымской (Якутия, Россия) (235 км)
Погода на Айон Острове (Чукотка, Россия) (252 км)

Пояснения к столбцам:

Ветер - указаны скорость ветра в м/с - средняя за 10 мин, порывы в срок и между сроками (в фигурных скобках) и направление, откуда дует ветер: С - северный, СВ - северо-восточный, В - восточный, ЮВ - юго-восточный, Ю - южный, ЮЗ - юго-западный, З - западный, СЗ - северо-западный.
Видимость - горизонтальная дальность видимости в метрах или километрах. При видимости от 1 до 10 км при отсутствии осадков обычно наблюдается дымка, при ухудшении видимости до 1 км и менее - туман. В сухую погоду видимость может ухудшаться дымом, пылью или мглою.
Явления - указаны атмосферные явления, наблюдавшиеся в срок или в последний час перед сроком; фигурными скобками обозначены явления, наблюдавшиеся между сроками (за 1-3 часа до срока); квадратными скобками обозначены град или гололедные отложения с указанием их диаметра в мм.
Облачность - указаны через наклонную черту общая и нижняя облачность в баллах и высота нижней границы облаков в метрах; квадратными скобками обозначены формы облаков: Ci - перистые, Cs - перисто-слоистые, Cc - перисто-кучевые, Ac - высококучевые, As - высокослоистые, Sc - слоисто-кучевые, Ns - слоисто-дождевые, Cu - кучевые, Cb - кучево-дождевые. Подробнее классификацию облаков см. в Атласе облаков (PDF).
T - Температура воздуха - температура, измеренная на высоте 2 м над землей.
Td - Температура точки росы - температура, при понижении до которой содержащийся в воздухе водяной пар достигнет насыщения.
f - Относительная влажность воздуха - влажноcть воздуха, измеренная на высоте 2 м над землей.
Te - Эффективная температура - температура, которую ощущает одетый по сезону человек в тени. Характеристика душности погоды. При расчете учитывается влияние влажности воздуха и скорости ветра на теплоощущения человека.
Tes - Эффективная температура на солнце - температура, которую ощущает человек, с поправкой на солнечный нагрев. Характеристика знойности погоды. Зависит от высоты солнца над горизонтом, облачности и скорости ветра. Ночью, в пасмурную погоду, а также при ветре 12 м/с и более поправка равна нулю.
P - Атмосферное давление - приведенное к уровню моря атмосферное давление.
Po - Атмосферное давление - измеренное на уровне метеостанции атмосферное давление.
Tmin - Минимальная температура - минимум температуры воздуха на высоте 2 м над землей.
Tmax - Максимальная температура - максимум температуры воздуха на высоте 2 м над землей.
R - Количество осадков - Количество выпавших осадков за период времени, мм. При наведении курсора мыши на число - период времени, за который выпало указанное количество осадков.
R24 - Количество осадков - Количество выпавших осадков за 24 часа, мм.
S - Снежный покров - Высота снежного покрова, см. При наведении курсора мыши на число - состояние снежного покрова и степень покрытия местности в баллах.